Location: Paddlesworth
(51.1000°N, 1.1333°E)
Time: 12:53:07
(UTC+00:00)

Okean 3 - Pass Details

Date: 11 May 2021
Orbit: 575 x 601 km, 82.5° (Epoch: 19 June)

Event Time Altitude Azimuth Distance (km) Brightness Sun altitude
Exits shadow 23:50:47 51° 136° (SE) 748 3.6 -20.8°
Maximum altitude 23:51:27 59° 96° (E) 689 3.7 -20.8°
Drops below altitude 10° 23:55:39 10° 17° (NNE) 1,927 7.2 -20.8°
Sets 23:57:52 0° 14° (NNE) 2,829 8.4 -20.7°
